Terminal Aerodrome Forecast
Issued by NWS Quad Cities IA IL

Home | Current Version | Previous Version | Text Only | Print | Product List | Glossary On
Versions: 1 2 3 4 5 6 7 8 9 10 11 12 13 14 15 16
000
FTUS43 KDVN 291500 AAB
TAFDBQ
TAF AMD
KDBQ 291544Z 2916/3012 33011KT P6SM BKN040
      TEMPO 2916/2920 BKN029
     FM300000 27003KT P6SM FEW250=

USA.gov is the U.S. government's official web portal to all federal, state and local government web resources and services.